Multibeam Report for EX1303


Ship Name: Okeanos Explorer
Chief Scientist: Skarke, Adam
NOAA/OAR/OER
Source Organization: National Oceanic and Atmospheric Administration (NOAA)
Start Date: 2013-06-11
End Date: 2013-06-29


View ISO Metadata

Visit the full NCEI Bathymetry Viewer


Multibeam Bathymetry

Cruise Details

Project: New England Seamount Chain Exploration
Instrument: Kongsberg EM302

Data Quality

Number of Files: 573
Number of Records: 1080586
BATHYMETRY DATA Quantity Percentage
Number of Beams 204145488 100%
Number of Good Beams 184282442 90.27%
Number of Zero Beams 0 0%
Number of Flagged Beams 19863046 9.73%

Navigation Totals

Total Time: 356.786 hours
Total Track Length: 5762.4636 km
Average Speed: 16.151 km/hr (8.7208 knots)

Cruise Bounds

Northern Extent: 40.82392
Southern Extent: 38.001522
Western Extent: -72.51709
Eastern Extent: -62.700058

Limits

Minimum Sonar Depth 0 Maximum Sonar Depth 5.2504
Minimum Altitude 0 Maximum Altitude 6916.3071
Minimum Depth 1.0866 Maximum Depth 7174.8833

File Information

Full Resolution Bathymetry as collected (raw): 276

Files File Size Description
0000_20130611_202231_EX1303_MB.all.mb58.gz 636.69MB Kongsberg multibeam vendor format
0001_20130611_222231_EX1303_MB.all.mb58.gz 568.42MB Kongsberg multibeam vendor format
0002_20130612_000128_EX1303_MB.all.mb58.gz 523.89MB Kongsberg multibeam vendor format
0003_20130612_014723_EX1303_MB.all.mb58.gz 566.00MB Kongsberg multibeam vendor format
0004_20130612_034723_EX1303_MB.all.mb58.gz 486.94MB Kongsberg multibeam vendor format
0005_20130612_054723_EX1303_MB.all.mb58.gz 361.37MB Kongsberg multibeam vendor format
0006_20130612_074723_EX1303_MB.all.mb58.gz 68.69MB Kongsberg multibeam vendor format
0007_20130612_082126_EX1303_MB.all.mb58.gz 155.87MB Kongsberg multibeam vendor format
0008_20130612_095943_EX1303_MB.all.mb58.gz 109.37MB Kongsberg multibeam vendor format
0010_20130612_111335_EX1303_MB.all.mb58.gz 173.39MB Kongsberg multibeam vendor format
0011_20130612_131333_EX1303_MB.all.mb58.gz 103.23MB Kongsberg multibeam vendor format
0012_20130612_135134_EX1303_MB.all.mb58.gz 32.07MB Kongsberg multibeam vendor format
0013_20130612_140109_EX1303_MB.all.mb58.gz 148.92MB Kongsberg multibeam vendor format
0014_20130612_151732_EX1303_MB.all.mb58.gz 16.62MB Kongsberg multibeam vendor format
0015_20130612_152846_EX1303_MB.all.mb58.gz 126.15MB Kongsberg multibeam vendor format
0016_20130612_163528_EX1303_MB.all.mb58.gz 26.29MB Kongsberg multibeam vendor format
0017_20130612_164257_EX1303_MB.all.mb58.gz 143.34MB Kongsberg multibeam vendor format
0018_20130612_175621_EX1303_MB.all.mb58.gz 21.51MB Kongsberg multibeam vendor format
0019_20130612_181214_EX1303_MB.all.mb58.gz 121.57MB Kongsberg multibeam vendor format
0020_20130612_191221_EX1303_MB.all.mb58.gz 38.09MB Kongsberg multibeam vendor format
0021_20130612_192645_EX1303_MB.all.mb58.gz 105.16MB Kongsberg multibeam vendor format
0022_20130612_202616_EX1303_MB.all.mb58.gz 30.29MB Kongsberg multibeam vendor format
0023_20130612_204914_EX1303_MB.all.mb58.gz 45.43MB Kongsberg multibeam vendor format
0024_20130612_212550_EX1303_MB.all.mb58.gz 114.84MB Kongsberg multibeam vendor format
0025_20130612_232552_EX1303_MB.all.mb58.gz 31.79MB Kongsberg multibeam vendor format
0026_20130613_000017_EX1303_MB.all.mb58.gz 104.58MB Kongsberg multibeam vendor format
0027_20130613_010814_EX1303_MB.all.mb58.gz 27.15MB Kongsberg multibeam vendor format
0028_20130613_011837_EX1303_MB.all.mb58.gz 57.06MB Kongsberg multibeam vendor format
0029_20130613_015127_EX1303_MB.all.mb58.gz 16.48MB Kongsberg multibeam vendor format
0030_20130613_020445_EX1303_MB.all.mb58.gz 59.66MB Kongsberg multibeam vendor format
0031_20130613_024129_EX1303_MB.all.mb58.gz 22.35MB Kongsberg multibeam vendor format
0032_20130613_025121_EX1303_MB.all.mb58.gz 58.43MB Kongsberg multibeam vendor format
0033_20130613_032539_EX1303_MB.all.mb58.gz 12.84MB Kongsberg multibeam vendor format
0034_20130613_033432_EX1303_MB.all.mb58.gz 135.75MB Kongsberg multibeam vendor format
0035_20130615_092304_EX1303_MB.all.mb58.gz 149.13MB Kongsberg multibeam vendor format
0036_20130615_112309_EX1303_MB.all.mb58.gz 105.63MB Kongsberg multibeam vendor format
0037_20130615_132309_EX1303_MB.all.mb58.gz 10.44MB Kongsberg multibeam vendor format
0038_20130615_133517_EX1303_MB.all.mb58.gz 103.54MB Kongsberg multibeam vendor format
0039_20130615_153512_EX1303_MB.all.mb58.gz 62.75MB Kongsberg multibeam vendor format
0040_20130615_164736_EX1303_MB.all.mb58.gz 101.12MB Kongsberg multibeam vendor format
0041_20130615_184743_EX1303_MB.all.mb58.gz 95.55MB Kongsberg multibeam vendor format
0042_20130615_204733_EX1303_MB.all.mb58.gz 90.26MB Kongsberg multibeam vendor format
0043_20130615_224739_EX1303_MB.all.mb58.gz 57.63MB Kongsberg multibeam vendor format
0044_20130616_000038_EX1303_MB.all.mb58.gz 74.92MB Kongsberg multibeam vendor format
0045_20130616_014152_EX1303_MB.all.mb58.gz 88.04MB Kongsberg multibeam vendor format
0046_20130616_034146_EX1303_MB.all.mb58.gz 87.76MB Kongsberg multibeam vendor format
0047_20130616_054156_EX1303_MB.all.mb58.gz 87.41MB Kongsberg multibeam vendor format
0048_20130616_074152_EX1303_MB.all.mb58.gz 87.68MB Kongsberg multibeam vendor format
0049_20130616_094150_EX1303_MB.all.mb58.gz 76.09MB Kongsberg multibeam vendor format
0050_20130616_112622_EX1303_MB.all.mb58.gz 22.81MB Kongsberg multibeam vendor format
0051_20130616_115752_EX1303_MB.all.mb58.gz 16.33MB Kongsberg multibeam vendor format
0052_20130616_122012_EX1303_MB.all.mb58.gz 0.87MB Kongsberg multibeam vendor format
0053_20130616_122122_EX1303_MB.all.mb58.gz 87.26MB Kongsberg multibeam vendor format
0054_20130616_142123_EX1303_MB.all.mb58.gz 87.15MB Kongsberg multibeam vendor format
0055_20130616_162122_EX1303_MB.all.mb58.gz 87.26MB Kongsberg multibeam vendor format
0056_20130616_182125_EX1303_MB.all.mb58.gz 86.91MB Kongsberg multibeam vendor format
0057_20130616_202124_EX1303_MB.all.mb58.gz 87.13MB Kongsberg multibeam vendor format
0058_20130616_222130_EX1303_MB.all.mb58.gz 412.3KB Kongsberg multibeam vendor format
0059_20130616_222203_EX1303_MB.all.mb58.gz 18.54MB Kongsberg multibeam vendor format
0060_20130616_224726_EX1303_MB.all.mb58.gz 52.73MB Kongsberg multibeam vendor format
0061_20130617_000010_EX1303_MB.all.mb58.gz 87.24MB Kongsberg multibeam vendor format
0062_20130617_020008_EX1303_MB.all.mb58.gz 87.38MB Kongsberg multibeam vendor format
0063_20130617_040009_EX1303_MB.all.mb58.gz 87.63MB Kongsberg multibeam vendor format
0064_20130617_060001_EX1303_MB.all.mb58.gz 88.14MB Kongsberg multibeam vendor format
0065_20130617_080004_EX1303_MB.all.mb58.gz 22.95MB Kongsberg multibeam vendor format
0066_20130617_083122_EX1303_MB.all.mb58.gz 22.86MB Kongsberg multibeam vendor format
0067_20130617_090219_EX1303_MB.all.mb58.gz 87.98MB Kongsberg multibeam vendor format
0068_20130617_110218_EX1303_MB.all.mb58.gz 88.36MB Kongsberg multibeam vendor format
0069_20130617_130221_EX1303_MB.all.mb58.gz 88.20MB Kongsberg multibeam vendor format
0070_20130617_150220_EX1303_MB.all.mb58.gz 86.89MB Kongsberg multibeam vendor format
0071_20130617_170224_EX1303_MB.all.mb58.gz 89.15MB Kongsberg multibeam vendor format
0072_20130617_190219_EX1303_MB.all.mb58.gz 19.43MB Kongsberg multibeam vendor format
0073_20130617_192833_EX1303_MB.all.mb58.gz 16.81MB Kongsberg multibeam vendor format
0074_20130617_195115_EX1303_MB.all.mb58.gz 81.23MB Kongsberg multibeam vendor format
0075_20130617_214050_EX1303_MB.all.mb58.gz 56.91MB Kongsberg multibeam vendor format
0076_20130617_225625_EX1303_MB.all.mb58.gz 46.97MB Kongsberg multibeam vendor format
0077_20130618_000015_EX1303_MB.all.mb58.gz 89.29MB Kongsberg multibeam vendor format
0078_20130618_020008_EX1303_MB.all.mb58.gz 88.70MB Kongsberg multibeam vendor format
0079_20130618_040004_EX1303_MB.all.mb58.gz 88.67MB Kongsberg multibeam vendor format
0080_20130618_060002_EX1303_MB.all.mb58.gz 19.10MB Kongsberg multibeam vendor format
0081_20130618_062552_EX1303_MB.all.mb58.gz 25.24MB Kongsberg multibeam vendor format
0082_20130618_065940_EX1303_MB.all.mb58.gz 87.87MB Kongsberg multibeam vendor format
0083_20130618_085941_EX1303_MB.all.mb58.gz 87.45MB Kongsberg multibeam vendor format
0084_20130618_105937_EX1303_MB.all.mb58.gz 88.95MB Kongsberg multibeam vendor format
0085_20130618_125940_EX1303_MB.all.mb58.gz 89.92MB Kongsberg multibeam vendor format
0086_20130618_145939_EX1303_MB.all.mb58.gz 89.60MB Kongsberg multibeam vendor format
0087_20130618_165935_EX1303_MB.all.mb58.gz 10.51MB Kongsberg multibeam vendor format
0088_20130618_171338_EX1303_MB.all.mb58.gz 0.97MB Kongsberg multibeam vendor format
0089_20130618_171456_EX1303_MB.all.mb58.gz 19.26MB Kongsberg multibeam vendor format
0090_20130618_174039_EX1303_MB.all.mb58.gz 89.19MB Kongsberg multibeam vendor format
0091_20130618_194037_EX1303_MB.all.mb58.gz 88.34MB Kongsberg multibeam vendor format
0092_20130618_214034_EX1303_MB.all.mb58.gz 88.95MB Kongsberg multibeam vendor format
0093_20130618_234035_EX1303_MB.all.mb58.gz 14.48MB Kongsberg multibeam vendor format
0094_20130619_000003_EX1303_MB.all.mb58.gz 85.01MB Kongsberg multibeam vendor format
0095_20130619_015430_EX1303_MB.all.mb58.gz 21.47MB Kongsberg multibeam vendor format
0096_20130619_022309_EX1303_MB.all.mb58.gz 89.71MB Kongsberg multibeam vendor format
0097_20130619_042301_EX1303_MB.all.mb58.gz 89.64MB Kongsberg multibeam vendor format
0098_20130619_062304_EX1303_MB.all.mb58.gz 88.45MB Kongsberg multibeam vendor format
0099_20130619_082058_EX1303_MB.all.mb58.gz 21.82MB Kongsberg multibeam vendor format
0100_20130619_085010_EX1303_MB.all.mb58.gz 89.70MB Kongsberg multibeam vendor format
0101_20130619_105010_EX1303_MB.all.mb58.gz 17.53MB Kongsberg multibeam vendor format
0102_20130619_111330_EX1303_MB.all.mb58.gz 13.46MB Kongsberg multibeam vendor format
0103_20130619_113138_EX1303_MB.all.mb58.gz 85.19MB Kongsberg multibeam vendor format
0104_20130619_133133_EX1303_MB.all.mb58.gz 77.76MB Kongsberg multibeam vendor format
0105_20130619_151507_EX1303_MB.all.mb58.gz 3.52MB Kongsberg multibeam vendor format
0106_20130619_151944_EX1303_MB.all.mb58.gz 91.39MB Kongsberg multibeam vendor format
0107_20130619_171950_EX1303_MB.all.mb58.gz 91.07MB Kongsberg multibeam vendor format
0108_20130619_191950_EX1303_MB.all.mb58.gz 86.62MB Kongsberg multibeam vendor format
0109_20130619_211945_EX1303_MB.all.mb58.gz 88.16MB Kongsberg multibeam vendor format
0110_20130619_231942_EX1303_MB.all.mb58.gz 29.63MB Kongsberg multibeam vendor format
0111_20130620_000003_EX1303_MB.all.mb58.gz 88.41MB Kongsberg multibeam vendor format
0112_20130620_020007_EX1303_MB.all.mb58.gz 23.59MB Kongsberg multibeam vendor format
0113_20130620_023131_EX1303_MB.all.mb58.gz 41.29MB Kongsberg multibeam vendor format
0114_20130620_032654_EX1303_MB.all.mb58.gz 90.63MB Kongsberg multibeam vendor format
0115_20130620_052650_EX1303_MB.all.mb58.gz 64.56MB Kongsberg multibeam vendor format
0116_20130620_065215_EX1303_MB.all.mb58.gz 49.61MB Kongsberg multibeam vendor format
0117_20130620_075800_EX1303_MB.all.mb58.gz 51.46MB Kongsberg multibeam vendor format
0118_20130620_090607_EX1303_MB.all.mb58.gz 90.15MB Kongsberg multibeam vendor format
0119_20130620_110606_EX1303_MB.all.mb58.gz 88.64MB Kongsberg multibeam vendor format
0120_20130620_130606_EX1303_MB.all.mb58.gz 35.76MB Kongsberg multibeam vendor format
0121_20130620_135507_EX1303_MB.all.mb58.gz 19.64MB Kongsberg multibeam vendor format
0122_20130620_142142_EX1303_MB.all.mb58.gz 89.32MB Kongsberg multibeam vendor format
0123_20130620_162134_EX1303_MB.all.mb58.gz 89.07MB Kongsberg multibeam vendor format
0124_20130620_182141_EX1303_MB.all.mb58.gz 45.34MB Kongsberg multibeam vendor format
0125_20130620_192251_EX1303_MB.all.mb58.gz 22.78MB Kongsberg multibeam vendor format
0126_20130620_195332_EX1303_MB.all.mb58.gz 88.88MB Kongsberg multibeam vendor format
0127_20130620_215334_EX1303_MB.all.mb58.gz 90.00MB Kongsberg multibeam vendor format
0128_20130620_235330_EX1303_MB.all.mb58.gz 4.89MB Kongsberg multibeam vendor format
0129_20130621_000008_EX1303_MB.all.mb58.gz 38.89MB Kongsberg multibeam vendor format
0130_20130621_005256_EX1303_MB.all.mb58.gz 18.39MB Kongsberg multibeam vendor format
0131_20130621_011749_EX1303_MB.all.mb58.gz 89.56MB Kongsberg multibeam vendor format
0132_20130621_031747_EX1303_MB.all.mb58.gz 94.95MB Kongsberg multibeam vendor format
0133_20130621_051744_EX1303_MB.all.mb58.gz 40.12MB Kongsberg multibeam vendor format
0134_20130621_061254_EX1303_MB.all.mb58.gz 18.01MB Kongsberg multibeam vendor format
0135_20130621_063730_EX1303_MB.all.mb58.gz 87.97MB Kongsberg multibeam vendor format
0136_20130621_083727_EX1303_MB.all.mb58.gz 104.84MB Kongsberg multibeam vendor format
0137_20130621_103730_EX1303_MB.all.mb58.gz 14.46MB Kongsberg multibeam vendor format
0138_20130621_105712_EX1303_MB.all.mb58.gz 20.43MB Kongsberg multibeam vendor format
0139_20130621_112456_EX1303_MB.all.mb58.gz 35.69MB Kongsberg multibeam vendor format
0140_20130621_121326_EX1303_MB.all.mb58.gz 15.99MB Kongsberg multibeam vendor format
0141_20130621_123505_EX1303_MB.all.mb58.gz 38.33MB Kongsberg multibeam vendor format
0142_20130621_132752_EX1303_MB.all.mb58.gz 93.85MB Kongsberg multibeam vendor format
0143_20130621_152745_EX1303_MB.all.mb58.gz 89.87MB Kongsberg multibeam vendor format
0144_20130621_172753_EX1303_MB.all.mb58.gz 17.63MB Kongsberg multibeam vendor format
0145_20130621_175237_EX1303_MB.all.mb58.gz 0.97MB Kongsberg multibeam vendor format
0146_20130621_175356_EX1303_MB.all.mb58.gz 19.93MB Kongsberg multibeam vendor format
0147_20130621_182128_EX1303_MB.all.mb58.gz 86.79MB Kongsberg multibeam vendor format
0148_20130621_202137_EX1303_MB.all.mb58.gz 96.02MB Kongsberg multibeam vendor format
0149_20130621_222135_EX1303_MB.all.mb58.gz 63.96MB Kongsberg multibeam vendor format
0150_20130621_234954_EX1303_MB.all.mb58.gz 7.36MB Kongsberg multibeam vendor format
0151_20130622_000003_EX1303_MB.all.mb58.gz 11.04MB Kongsberg multibeam vendor format
0152_20130622_001518_EX1303_MB.all.mb58.gz 86.17MB Kongsberg multibeam vendor format
0153_20130622_021522_EX1303_MB.all.mb58.gz 92.21MB Kongsberg multibeam vendor format
0154_20130622_041518_EX1303_MB.all.mb58.gz 56.87MB Kongsberg multibeam vendor format
0155_20130622_053532_EX1303_MB.all.mb58.gz 20.53MB Kongsberg multibeam vendor format
0156_20130622_060408_EX1303_MB.all.mb58.gz 86.36MB Kongsberg multibeam vendor format
0157_20130622_080407_EX1303_MB.all.mb58.gz 89.49MB Kongsberg multibeam vendor format
0158_20130622_100404_EX1303_MB.all.mb58.gz 86.87MB Kongsberg multibeam vendor format
0159_20130622_120409_EX1303_MB.all.mb58.gz 74.00MB Kongsberg multibeam vendor format
0160_20130622_134529_EX1303_MB.all.mb58.gz 10.77MB Kongsberg multibeam vendor format
0161_20130622_140020_EX1303_MB.all.mb58.gz 12.34MB Kongsberg multibeam vendor format
0162_20130622_141713_EX1303_MB.all.mb58.gz 87.55MB Kongsberg multibeam vendor format
0163_20130622_161710_EX1303_MB.all.mb58.gz 85.76MB Kongsberg multibeam vendor format
0164_20130622_181713_EX1303_MB.all.mb58.gz 92.12MB Kongsberg multibeam vendor format
0165_20130622_201712_EX1303_MB.all.mb58.gz 48.66MB Kongsberg multibeam vendor format
0166_20130622_212546_EX1303_MB.all.mb58.gz 16.73MB Kongsberg multibeam vendor format
0167_20130622_214858_EX1303_MB.all.mb58.gz 86.40MB Kongsberg multibeam vendor format
0168_20130622_234854_EX1303_MB.all.mb58.gz 8.83MB Kongsberg multibeam vendor format
0169_20130623_000059_EX1303_MB.all.mb58.gz 91.16MB Kongsberg multibeam vendor format
0170_20130623_020059_EX1303_MB.all.mb58.gz 87.54MB Kongsberg multibeam vendor format
0171_20130623_040105_EX1303_MB.all.mb58.gz 87.87MB Kongsberg multibeam vendor format
0172_20130623_060107_EX1303_MB.all.mb58.gz 25.23MB Kongsberg multibeam vendor format
0173_20130623_063601_EX1303_MB.all.mb58.gz 10.20MB Kongsberg multibeam vendor format
0174_20130623_065011_EX1303_MB.all.mb58.gz 86.06MB Kongsberg multibeam vendor format
0175_20130623_085009_EX1303_MB.all.mb58.gz 55.79MB Kongsberg multibeam vendor format
0176_20130623_100710_EX1303_MB.all.mb58.gz 85.50MB Kongsberg multibeam vendor format
0177_20130623_120709_EX1303_MB.all.mb58.gz 85.46MB Kongsberg multibeam vendor format
0178_20130623_140707_EX1303_MB.all.mb58.gz 41.01MB Kongsberg multibeam vendor format
0179_20130623_150502_EX1303_MB.all.mb58.gz 8.98MB Kongsberg multibeam vendor format
0180_20130623_151736_EX1303_MB.all.mb58.gz 35.12MB Kongsberg multibeam vendor format
0181_20130623_160653_EX1303_MB.all.mb58.gz 85.87MB Kongsberg multibeam vendor format
0182_20130623_180700_EX1303_MB.all.mb58.gz 86.42MB Kongsberg multibeam vendor format
0183_20130623_200655_EX1303_MB.all.mb58.gz 92.19MB Kongsberg multibeam vendor format
0184_20130623_220656_EX1303_MB.all.mb58.gz 82.79MB Kongsberg multibeam vendor format
0185_20130624_000005_EX1303_MB.all.mb58.gz 38.80MB Kongsberg multibeam vendor format
0186_20130624_005358_EX1303_MB.all.mb58.gz 19.38MB Kongsberg multibeam vendor format
0187_20130624_012057_EX1303_MB.all.mb58.gz 85.77MB Kongsberg multibeam vendor format
0188_20130624_032056_EX1303_MB.all.mb58.gz 99.20MB Kongsberg multibeam vendor format
0189_20130624_052056_EX1303_MB.all.mb58.gz 77.42MB Kongsberg multibeam vendor format
0190_20130624_065657_EX1303_MB.all.mb58.gz 47.24MB Kongsberg multibeam vendor format
0191_20130624_080230_EX1303_MB.all.mb58.gz 101.30MB Kongsberg multibeam vendor format
0192_20130624_100227_EX1303_MB.all.mb58.gz 92.50MB Kongsberg multibeam vendor format
0193_20130624_120227_EX1303_MB.all.mb58.gz 46.72MB Kongsberg multibeam vendor format
0194_20130624_130658_EX1303_MB.all.mb58.gz 16.52MB Kongsberg multibeam vendor format
0195_20130624_132950_EX1303_MB.all.mb58.gz 90.25MB Kongsberg multibeam vendor format
0196_20130624_152944_EX1303_MB.all.mb58.gz 99.16MB Kongsberg multibeam vendor format
0197_20130624_172946_EX1303_MB.all.mb58.gz 52.29MB Kongsberg multibeam vendor format
0198_20130624_184219_EX1303_MB.all.mb58.gz 14.51MB Kongsberg multibeam vendor format
0199_20130624_190227_EX1303_MB.all.mb58.gz 90.04MB Kongsberg multibeam vendor format
0200_20130624_210224_EX1303_MB.all.mb58.gz 92.72MB Kongsberg multibeam vendor format
0201_20130624_230222_EX1303_MB.all.mb58.gz 42.24MB Kongsberg multibeam vendor format
0202_20130625_000010_EX1303_MB.all.mb58.gz 18.01MB Kongsberg multibeam vendor format
0203_20130625_002457_EX1303_MB.all.mb58.gz 88.20MB Kongsberg multibeam vendor format
0204_20130625_022459_EX1303_MB.all.mb58.gz 89.32MB Kongsberg multibeam vendor format
0205_20130625_042455_EX1303_MB.all.mb58.gz 83.13MB Kongsberg multibeam vendor format
0206_20130625_061809_EX1303_MB.all.mb58.gz 17.55MB Kongsberg multibeam vendor format
0207_20130625_064226_EX1303_MB.all.mb58.gz 88.37MB Kongsberg multibeam vendor format
0208_20130625_084222_EX1303_MB.all.mb58.gz 91.86MB Kongsberg multibeam vendor format
0209_20130625_104223_EX1303_MB.all.mb58.gz 5.99MB Kongsberg multibeam vendor format
0210_20130625_105029_EX1303_MB.all.mb58.gz 14.96MB Kongsberg multibeam vendor format
0211_20130625_111044_EX1303_MB.all.mb58.gz 89.21MB Kongsberg multibeam vendor format
0212_20130625_131044_EX1303_MB.all.mb58.gz 28.23MB Kongsberg multibeam vendor format
0213_20130625_134923_EX1303_MB.all.mb58.gz 8.70MB Kongsberg multibeam vendor format
0214_20130625_140115_EX1303_MB.all.mb58.gz 90.97MB Kongsberg multibeam vendor format
0215_20130625_160114_EX1303_MB.all.mb58.gz 92.09MB Kongsberg multibeam vendor format
0216_20130625_180118_EX1303_MB.all.mb58.gz 86.94MB Kongsberg multibeam vendor format
0217_20130625_200114_EX1303_MB.all.mb58.gz 86.69MB Kongsberg multibeam vendor format
0218_20130625_220116_EX1303_MB.all.mb58.gz 85.11MB Kongsberg multibeam vendor format
0219_20130626_000001_EX1303_MB.all.mb58.gz 86.52MB Kongsberg multibeam vendor format
0220_20130626_020000_EX1303_MB.all.mb58.gz 87.48MB Kongsberg multibeam vendor format
0221_20130626_040006_EX1303_MB.all.mb58.gz 88.27MB Kongsberg multibeam vendor format
0222_20130626_060000_EX1303_MB.all.mb58.gz 88.55MB Kongsberg multibeam vendor format
0223_20130626_080000_EX1303_MB.all.mb58.gz 88.23MB Kongsberg multibeam vendor format
0224_20130626_100007_EX1303_MB.all.mb58.gz 88.26MB Kongsberg multibeam vendor format
0225_20130626_120002_EX1303_MB.all.mb58.gz 89.00MB Kongsberg multibeam vendor format
0226_20130626_140003_EX1303_MB.all.mb58.gz 88.52MB Kongsberg multibeam vendor format
0227_20130626_160006_EX1303_MB.all.mb58.gz 88.42MB Kongsberg multibeam vendor format
0228_20130626_180001_EX1303_MB.all.mb58.gz 89.12MB Kongsberg multibeam vendor format
0229_20130626_200006_EX1303_MB.all.mb58.gz 89.72MB Kongsberg multibeam vendor format
0230_20130626_220002_EX1303_MB.all.mb58.gz 89.98MB Kongsberg multibeam vendor format
0231_20130627_000004_EX1303_MB.all.mb58.gz 90.89MB Kongsberg multibeam vendor format
0232_20130627_020002_EX1303_MB.all.mb58.gz 94.79MB Kongsberg multibeam vendor format
0233_20130627_040003_EX1303_MB.all.mb58.gz 105.28MB Kongsberg multibeam vendor format
0234_20130627_060008_EX1303_MB.all.mb58.gz 105.22MB Kongsberg multibeam vendor format
0235_20130627_080007_EX1303_MB.all.mb58.gz 104.71MB Kongsberg multibeam vendor format
0236_20130627_100006_EX1303_MB.all.mb58.gz 83.48MB Kongsberg multibeam vendor format
0237_20130627_113408_EX1303_MB.all.mb58.gz 109.91MB Kongsberg multibeam vendor format
0238_20130627_133404_EX1303_MB.all.mb58.gz 124.39MB Kongsberg multibeam vendor format
0239_20130627_153405_EX1303_MB.all.mb58.gz 86.90MB Kongsberg multibeam vendor format
0240_20130627_162748_EX1303_MB.all.mb58.gz 178.13MB Kongsberg multibeam vendor format
0241_20130627_174146_EX1303_MB.all.mb58.gz 26.28MB Kongsberg multibeam vendor format
0242_20130627_174738_EX1303_MB.all.mb58.gz 108.19MB Kongsberg multibeam vendor format
0243_20130627_182728_EX1303_MB.all.mb58.gz 13.52MB Kongsberg multibeam vendor format
0244_20130627_183410_EX1303_MB.all.mb58.gz 35.02MB Kongsberg multibeam vendor format
0245_20130627_184832_EX1303_MB.all.mb58.gz 25.84MB Kongsberg multibeam vendor format
0246_20130627_185643_EX1303_MB.all.mb58.gz 46.76MB Kongsberg multibeam vendor format
0247_20130627_191537_EX1303_MB.all.mb58.gz 63.53MB Kongsberg multibeam vendor format
0248_20130627_195021_EX1303_MB.all.mb58.gz 14.96MB Kongsberg multibeam vendor format
0249_20130627_195836_EX1303_MB.all.mb58.gz 194.04MB Kongsberg multibeam vendor format
0250_20130627_211153_EX1303_MB.all.mb58.gz 177.82MB Kongsberg multibeam vendor format
0251_20130627_215726_EX1303_MB.all.mb58.gz 21.48MB Kongsberg multibeam vendor format
0252_20130627_220717_EX1303_MB.all.mb58.gz 24.22MB Kongsberg multibeam vendor format
0253_20130627_221446_EX1303_MB.all.mb58.gz 26.47MB Kongsberg multibeam vendor format
0254_20130627_222126_EX1303_MB.all.mb58.gz 253.48MB Kongsberg multibeam vendor format
0255_20130628_000929_EX1303_MB.all.mb58.gz 161.67MB Kongsberg multibeam vendor format
0256_20130628_020929_EX1303_MB.all.mb58.gz 111.18MB Kongsberg multibeam vendor format
0257_20130628_040934_EX1303_MB.all.mb58.gz 110.74MB Kongsberg multibeam vendor format
0258_20130628_060933_EX1303_MB.all.mb58.gz 145.05MB Kongsberg multibeam vendor format
0259_20130628_080929_EX1303_MB.all.mb58.gz 220.43MB Kongsberg multibeam vendor format
0260_20130628_100929_EX1303_MB.all.mb58.gz 164.55MB Kongsberg multibeam vendor format
0261_20130628_111713_EX1303_MB.all.mb58.gz 37.73MB Kongsberg multibeam vendor format
0262_20130628_113054_EX1303_MB.all.mb58.gz 197.87MB Kongsberg multibeam vendor format
0263_20130628_125645_EX1303_MB.all.mb58.gz 18.11MB Kongsberg multibeam vendor format
0264_20130628_130220_EX1303_MB.all.mb58.gz 158.97MB Kongsberg multibeam vendor format
0265_20130628_135848_EX1303_MB.all.mb58.gz 39.68MB Kongsberg multibeam vendor format
0266_20130628_141627_EX1303_MB.all.mb58.gz 166.59MB Kongsberg multibeam vendor format
0267_20130628_151039_EX1303_MB.all.mb58.gz 26.88MB Kongsberg multibeam vendor format
0268_20130628_152150_EX1303_MB.all.mb58.gz 90.12MB Kongsberg multibeam vendor format
0269_20130628_160017_EX1303_MB.all.mb58.gz 103.79MB Kongsberg multibeam vendor format
0270_20130628_164630_EX1303_MB.all.mb58.gz 51.68MB Kongsberg multibeam vendor format
0271_20130628_171924_EX1303_MB.all.mb58.gz 196.33MB Kongsberg multibeam vendor format
0272_20130628_185119_EX1303_MB.all.mb58.gz 207.92MB Kongsberg multibeam vendor format
0273_20130628_200651_EX1303_MB.all.mb58.gz 119.97MB Kongsberg multibeam vendor format
0274_20130628_205734_EX1303_MB.all.mb58.gz 142.97MB Kongsberg multibeam vendor format
0275_20130628_213707_EX1303_MB.all.mb58.gz 51.94MB Kongsberg multibeam vendor format
0276_20130628_215506_EX1303_MB.all.mb58.gz 227.96MB Kongsberg multibeam vendor format

Full Resolution Bathymetry (processed): 276

Files File Size Description
EX1303_EXApril09_2013-162_0000_20130611_202231_EX1303_MB.txt.mb163 137.09MB Generic YXZ sounding format
EX1303_EXApril09_2013-162_0001_20130611_222231_EX1303_MB.txt.mb163 111.44MB Generic YXZ sounding format
EX1303_EXApril09_2013-163_0002_20130612_000128_EX1303_MB.txt.mb163 105.37MB Generic YXZ sounding format
EX1303_EXApril09_2013-163_0003_20130612_014723_EX1303_MB.txt.mb163 104.75MB Generic YXZ sounding format
EX1303_EXApril09_2013-163_0004_20130612_034723_EX1303_MB.txt.mb163 89.86MB Generic YXZ sounding format
EX1303_EXApril09_2013-163_0005_20130612_054723_EX1303_MB.txt.mb163 51.29MB Generic YXZ sounding format
EX1303_EXApril09_2013-163_0006_20130612_074723_EX1303_MB.txt.mb163 6.40MB Generic YXZ sounding format
EX1303_EXApril09_2013-163_0007_20130612_082126_EX1303_MB.txt.mb163 11.74MB Generic YXZ sounding format
EX1303_EXApril09_2013-163_0008_20130612_095943_EX1303_MB.txt.mb163 7.21MB Generic YXZ sounding format
EX1303_EXApril09_2013-163_0010_20130612_111335_EX1303_MB.txt.mb163 13.34MB Generic YXZ sounding format
EX1303_EXApril09_2013-163_0011_20130612_131333_EX1303_MB.txt.mb163 18.32MB Generic YXZ sounding format
EX1303_EXApril09_2013-163_0012_20130612_135134_EX1303_MB.txt.mb163 6.15MB Generic YXZ sounding format
EX1303_EXApril09_2013-163_0013_20130612_140109_EX1303_MB.txt.mb163 19.79MB Generic YXZ sounding format
EX1303_EXApril09_2013-163_0014_20130612_151732_EX1303_MB.txt.mb163 1.68MB Generic YXZ sounding format
EX1303_EXApril09_2013-163_0015_20130612_152846_EX1303_MB.txt.mb163 16.50MB Generic YXZ sounding format
EX1303_EXApril09_2013-163_0016_20130612_163528_EX1303_MB.txt.mb163 4.81MB Generic YXZ sounding format
EX1303_EXApril09_2013-163_0017_20130612_164257_EX1303_MB.txt.mb163 20.21MB Generic YXZ sounding format
EX1303_EXApril09_2013-163_0018_20130612_175621_EX1303_MB.txt.mb163 1.53MB Generic YXZ sounding format
EX1303_EXApril09_2013-163_0019_20130612_181214_EX1303_MB.txt.mb163 17.65MB Generic YXZ sounding format
EX1303_EXApril09_2013-163_0020_20130612_191221_EX1303_MB.txt.mb163 5.92MB Generic YXZ sounding format
EX1303_EXApril09_2013-163_0021_20130612_192645_EX1303_MB.txt.mb163 11.60MB Generic YXZ sounding format
EX1303_EXApril09_2013-163_0022_20130612_202616_EX1303_MB.txt.mb163 2.52MB Generic YXZ sounding format
EX1303_EXApril09_2013-163_0023_20130612_204914_EX1303_MB.txt.mb163 3.03MB Generic YXZ sounding format
EX1303_EXApril09_2013-163_0024_20130612_212550_EX1303_MB.txt.mb163 7.64MB Generic YXZ sounding format
EX1303_EXApril09_2013-163_0025_20130612_232552_EX1303_MB.txt.mb163 2.10MB Generic YXZ sounding format
EX1303_EXApril09_2013-164_0026_20130613_000017_EX1303_MB.txt.mb163 10.97MB Generic YXZ sounding format
EX1303_EXApril09_2013-164_0027_20130613_010814_EX1303_MB.txt.mb163 4.35MB Generic YXZ sounding format
EX1303_EXApril09_2013-164_0028_20130613_011837_EX1303_MB.txt.mb163 6.80MB Generic YXZ sounding format
EX1303_EXApril09_2013-164_0029_20130613_015127_EX1303_MB.txt.mb163 1.30MB Generic YXZ sounding format
EX1303_EXApril09_2013-164_0030_20130613_020445_EX1303_MB.txt.mb163 7.66MB Generic YXZ sounding format
EX1303_EXApril09_2013-164_0031_20130613_024129_EX1303_MB.txt.mb163 3.32MB Generic YXZ sounding format
EX1303_EXApril09_2013-164_0032_20130613_025121_EX1303_MB.txt.mb163 7.21MB Generic YXZ sounding format
EX1303_EXApril09_2013-164_0033_20130613_032539_EX1303_MB.txt.mb163 0.88MB Generic YXZ sounding format
EX1303_EXApril09_2013-164_0034_20130613_033432_EX1303_MB.txt.mb163 20.64MB Generic YXZ sounding format
EX1303_EXApril09_2013-166_0035_20130615_092304_EX1303_MB.txt.mb163 12.47MB Generic YXZ sounding format
EX1303_EXApril09_2013-166_0036_20130615_112309_EX1303_MB.txt.mb163 4.53MB Generic YXZ sounding format
EX1303_EXApril09_2013-166_0037_20130615_132309_EX1303_MB.txt.mb163 402.3KB Generic YXZ sounding format
EX1303_EXApril09_2013-166_0038_20130615_133517_EX1303_MB.txt.mb163 4.06MB Generic YXZ sounding format
EX1303_EXApril09_2013-166_0039_20130615_153512_EX1303_MB.txt.mb163 2.46MB Generic YXZ sounding format
EX1303_EXApril09_2013-166_0040_20130615_164736_EX1303_MB.txt.mb163 2.71MB Generic YXZ sounding format
EX1303_EXApril09_2013-166_0041_20130615_184743_EX1303_MB.txt.mb163 4.15MB Generic YXZ sounding format
EX1303_EXApril09_2013-166_0042_20130615_204733_EX1303_MB.txt.mb163 3.08MB Generic YXZ sounding format
EX1303_EXApril09_2013-166_0043_20130615_224739_EX1303_MB.txt.mb163 2.38MB Generic YXZ sounding format
EX1303_EXApril09_2013-167_0044_20130616_000038_EX1303_MB.txt.mb163 2.44MB Generic YXZ sounding format
EX1303_EXApril09_2013-167_0045_20130616_014152_EX1303_MB.txt.mb163 2.91MB Generic YXZ sounding format
EX1303_EXApril09_2013-167_0046_20130616_034146_EX1303_MB.txt.mb163 2.91MB Generic YXZ sounding format
EX1303_EXApril09_2013-167_0047_20130616_054156_EX1303_MB.txt.mb163 2.88MB Generic YXZ sounding format
EX1303_EXApril09_2013-167_0048_20130616_074152_EX1303_MB.txt.mb163 2.95MB Generic YXZ sounding format
EX1303_EXApril09_2013-167_0049_20130616_094150_EX1303_MB.txt.mb163 2.51MB Generic YXZ sounding format
EX1303_EXApril09_2013-167_0050_20130616_112622_EX1303_MB.txt.mb163 0.74MB Generic YXZ sounding format
EX1303_EXApril09_2013-167_0051_20130616_115752_EX1303_MB.txt.mb163 0.54MB Generic YXZ sounding format
EX1303_EXApril09_2013-167_0052_20130616_122012_EX1303_MB.txt.mb163 21.1KB Generic YXZ sounding format
EX1303_EXApril09_2013-167_0053_20130616_122122_EX1303_MB.txt.mb163 2.82MB Generic YXZ sounding format
EX1303_EXApril09_2013-167_0054_20130616_142123_EX1303_MB.txt.mb163 2.78MB Generic YXZ sounding format
EX1303_EXApril09_2013-167_0055_20130616_162122_EX1303_MB.txt.mb163 2.81MB Generic YXZ sounding format
EX1303_EXApril09_2013-167_0056_20130616_182125_EX1303_MB.txt.mb163 2.78MB Generic YXZ sounding format
EX1303_EXApril09_2013-167_0057_20130616_202124_EX1303_MB.txt.mb163 2.76MB Generic YXZ sounding format
EX1303_EXApril09_2013-167_0058_20130616_222130_EX1303_MB.txt.mb163 8.3KB Generic YXZ sounding format
EX1303_EXApril09_2013-167_0059_20130616_222203_EX1303_MB.txt.mb163 0.59MB Generic YXZ sounding format
EX1303_EXApril09_2013-167_0060_20130616_224726_EX1303_MB.txt.mb163 1.73MB Generic YXZ sounding format
EX1303_EXApril09_2013-168_0061_20130617_000010_EX1303_MB.txt.mb163 2.94MB Generic YXZ sounding format
EX1303_EXApril09_2013-168_0062_20130617_020008_EX1303_MB.txt.mb163 2.99MB Generic YXZ sounding format
EX1303_EXApril09_2013-168_0063_20130617_040009_EX1303_MB.txt.mb163 2.91MB Generic YXZ sounding format
EX1303_EXApril09_2013-168_0064_20130617_060001_EX1303_MB.txt.mb163 2.95MB Generic YXZ sounding format
EX1303_EXApril09_2013-168_0065_20130617_080004_EX1303_MB.txt.mb163 0.74MB Generic YXZ sounding format
EX1303_EXApril09_2013-168_0066_20130617_083122_EX1303_MB.txt.mb163 0.71MB Generic YXZ sounding format
EX1303_EXApril09_2013-168_0067_20130617_090219_EX1303_MB.txt.mb163 2.86MB Generic YXZ sounding format
EX1303_EXApril09_2013-168_0068_20130617_110218_EX1303_MB.txt.mb163 2.83MB Generic YXZ sounding format
EX1303_EXApril09_2013-168_0069_20130617_130221_EX1303_MB.txt.mb163 2.69MB Generic YXZ sounding format
EX1303_EXApril09_2013-168_0070_20130617_150220_EX1303_MB.txt.mb163 2.01MB Generic YXZ sounding format
EX1303_EXApril09_2013-168_0071_20130617_170224_EX1303_MB.txt.mb163 2.79MB Generic YXZ sounding format
EX1303_EXApril09_2013-168_0072_20130617_190219_EX1303_MB.txt.mb163 0.63MB Generic YXZ sounding format
EX1303_EXApril09_2013-168_0073_20130617_192833_EX1303_MB.txt.mb163 0.56MB Generic YXZ sounding format
EX1303_EXApril09_2013-168_0074_20130617_195115_EX1303_MB.txt.mb163 2.73MB Generic YXZ sounding format
EX1303_EXApril09_2013-168_0076_20130617_225625_EX1303_MB.txt.mb163 1.52MB Generic YXZ sounding format
EX1303_EXApril09_2013-169_0075_20130617_214050_EX1303_MB.txt.mb163 1.58MB Generic YXZ sounding format
EX1303_EXApril09_2013-169_0077_20130618_000015_EX1303_MB.txt.mb163 2.98MB Generic YXZ sounding format
EX1303_EXApril09_2013-169_0078_20130618_020008_EX1303_MB.txt.mb163 2.92MB Generic YXZ sounding format
EX1303_EXApril09_2013-169_0079_20130618_040004_EX1303_MB.txt.mb163 2.96MB Generic YXZ sounding format
EX1303_EXApril09_2013-169_0080_20130618_060002_EX1303_MB.txt.mb163 0.65MB Generic YXZ sounding format
EX1303_EXApril09_2013-169_0081_20130618_062552_EX1303_MB.txt.mb163 0.73MB Generic YXZ sounding format
EX1303_EXApril09_2013-169_0082_20130618_065940_EX1303_MB.txt.mb163 1.81MB Generic YXZ sounding format
EX1303_EXApril09_2013-169_0083_20130618_085941_EX1303_MB.txt.mb163 1.92MB Generic YXZ sounding format
EX1303_EXApril09_2013-169_0084_20130618_105937_EX1303_MB.txt.mb163 2.62MB Generic YXZ sounding format
EX1303_EXApril09_2013-169_0085_20130618_125940_EX1303_MB.txt.mb163 3.06MB Generic YXZ sounding format
EX1303_EXApril09_2013-169_0086_20130618_145939_EX1303_MB.txt.mb163 3.06MB Generic YXZ sounding format
EX1303_EXApril09_2013-169_0087_20130618_165935_EX1303_MB.txt.mb163 328.2KB Generic YXZ sounding format
EX1303_EXApril09_2013-169_0088_20130618_171338_EX1303_MB.txt.mb163 31.6KB Generic YXZ sounding format
EX1303_EXApril09_2013-169_0089_20130618_171456_EX1303_MB.txt.mb163 0.66MB Generic YXZ sounding format
EX1303_EXApril09_2013-169_0090_20130618_174039_EX1303_MB.txt.mb163 3.16MB Generic YXZ sounding format
EX1303_EXApril09_2013-169_0091_20130618_194037_EX1303_MB.txt.mb163 3.06MB Generic YXZ sounding format
EX1303_EXApril09_2013-169_0092_20130618_214034_EX1303_MB.txt.mb163 3.25MB Generic YXZ sounding format
EX1303_EXApril09_2013-169_0093_20130618_234035_EX1303_MB.txt.mb163 0.51MB Generic YXZ sounding format
EX1303_EXApril09_2013-170_0094_20130619_000003_EX1303_MB.txt.mb163 3.05MB Generic YXZ sounding format
EX1303_EXApril09_2013-170_0095_20130619_015430_EX1303_MB.txt.mb163 0.77MB Generic YXZ sounding format
EX1303_EXApril09_2013-170_0096_20130619_022309_EX1303_MB.txt.mb163 3.08MB Generic YXZ sounding format
EX1303_EXApril09_2013-170_0097_20130619_042301_EX1303_MB.txt.mb163 2.98MB Generic YXZ sounding format
EX1303_EXApril09_2013-170_0098_20130619_062304_EX1303_MB.txt.mb163 3.20MB Generic YXZ sounding format
EX1303_EXApril09_2013-170_0099_20130619_082058_EX1303_MB.txt.mb163 0.76MB Generic YXZ sounding format
EX1303_EXApril09_2013-170_0100_20130619_085010_EX1303_MB.txt.mb163 3.13MB Generic YXZ sounding format
EX1303_EXApril09_2013-170_0101_20130619_105010_EX1303_MB.txt.mb163 0.61MB Generic YXZ sounding format
EX1303_EXApril09_2013-170_0102_20130619_111330_EX1303_MB.txt.mb163 422.6KB Generic YXZ sounding format
EX1303_EXApril09_2013-170_0103_20130619_113138_EX1303_MB.txt.mb163 1.30MB Generic YXZ sounding format
EX1303_EXApril09_2013-170_0104_20130619_133133_EX1303_MB.txt.mb163 2.30MB Generic YXZ sounding format
EX1303_EXApril09_2013-170_0105_20130619_151507_EX1303_MB.txt.mb163 120.7KB Generic YXZ sounding format
EX1303_EXApril09_2013-170_0106_20130619_151944_EX1303_MB.txt.mb163 2.97MB Generic YXZ sounding format
EX1303_EXApril09_2013-170_0107_20130619_171950_EX1303_MB.txt.mb163 2.89MB Generic YXZ sounding format
EX1303_EXApril09_2013-170_0108_20130619_191950_EX1303_MB.txt.mb163 1.50MB Generic YXZ sounding format
EX1303_EXApril09_2013-170_0109_20130619_211945_EX1303_MB.txt.mb163 1.90MB Generic YXZ sounding format
EX1303_EXApril09_2013-170_0110_20130619_231942_EX1303_MB.txt.mb163 0.63MB Generic YXZ sounding format
EX1303_EXApril09_2013-171_0111_20130620_000003_EX1303_MB.txt.mb163 2.06MB Generic YXZ sounding format
EX1303_EXApril09_2013-171_0112_20130620_020007_EX1303_MB.txt.mb163 0.70MB Generic YXZ sounding format
EX1303_EXApril09_2013-171_0113_20130620_023131_EX1303_MB.txt.mb163 1.37MB Generic YXZ sounding format
EX1303_EXApril09_2013-171_0114_20130620_032654_EX1303_MB.txt.mb163 3.27MB Generic YXZ sounding format
EX1303_EXApril09_2013-171_0115_20130620_052650_EX1303_MB.txt.mb163 2.30MB Generic YXZ sounding format
EX1303_EXApril09_2013-171_0116_20130620_065215_EX1303_MB.txt.mb163 1.61MB Generic YXZ sounding format
EX1303_EXApril09_2013-171_0117_20130620_075800_EX1303_MB.txt.mb163 1.75MB Generic YXZ sounding format
EX1303_EXApril09_2013-171_0118_20130620_090607_EX1303_MB.txt.mb163 3.15MB Generic YXZ sounding format
EX1303_EXApril09_2013-171_0119_20130620_110606_EX1303_MB.txt.mb163 2.75MB Generic YXZ sounding format
EX1303_EXApril09_2013-171_0120_20130620_130606_EX1303_MB.txt.mb163 0.95MB Generic YXZ sounding format
EX1303_EXApril09_2013-171_0121_20130620_135507_EX1303_MB.txt.mb163 0.58MB Generic YXZ sounding format
EX1303_EXApril09_2013-171_0122_20130620_142142_EX1303_MB.txt.mb163 2.73MB Generic YXZ sounding format
EX1303_EXApril09_2013-171_0123_20130620_162134_EX1303_MB.txt.mb163 2.83MB Generic YXZ sounding format
EX1303_EXApril09_2013-171_0124_20130620_182141_EX1303_MB.txt.mb163 1.51MB Generic YXZ sounding format
EX1303_EXApril09_2013-171_0125_20130620_192251_EX1303_MB.txt.mb163 0.75MB Generic YXZ sounding format
EX1303_EXApril09_2013-171_0126_20130620_195332_EX1303_MB.txt.mb163 2.93MB Generic YXZ sounding format
EX1303_EXApril09_2013-171_0127_20130620_215334_EX1303_MB.txt.mb163 3.20MB Generic YXZ sounding format
EX1303_EXApril09_2013-171_0128_20130620_235330_EX1303_MB.txt.mb163 154.7KB Generic YXZ sounding format
EX1303_EXApril09_2013-172_0129_20130621_000008_EX1303_MB.txt.mb163 1.28MB Generic YXZ sounding format
EX1303_EXApril09_2013-172_0130_20130621_005256_EX1303_MB.txt.mb163 0.63MB Generic YXZ sounding format
EX1303_EXApril09_2013-172_0131_20130621_011749_EX1303_MB.txt.mb163 3.36MB Generic YXZ sounding format
EX1303_EXApril09_2013-172_0132_20130621_031747_EX1303_MB.txt.mb163 4.55MB Generic YXZ sounding format
EX1303_EXApril09_2013-172_0133_20130621_051744_EX1303_MB.txt.mb163 1.35MB Generic YXZ sounding format
EX1303_EXApril09_2013-172_0134_20130621_061254_EX1303_MB.txt.mb163 0.61MB Generic YXZ sounding format
EX1303_EXApril09_2013-172_0135_20130621_063730_EX1303_MB.txt.mb163 2.88MB Generic YXZ sounding format
EX1303_EXApril09_2013-172_0136_20130621_083727_EX1303_MB.txt.mb163 6.58MB Generic YXZ sounding format
EX1303_EXApril09_2013-172_0137_20130621_103730_EX1303_MB.txt.mb163 470.6KB Generic YXZ sounding format
EX1303_EXApril09_2013-172_0138_20130621_105712_EX1303_MB.txt.mb163 0.67MB Generic YXZ sounding format
EX1303_EXApril09_2013-172_0139_20130621_112456_EX1303_MB.txt.mb163 1.23MB Generic YXZ sounding format
EX1303_EXApril09_2013-172_0140_20130621_121326_EX1303_MB.txt.mb163 0.54MB Generic YXZ sounding format
EX1303_EXApril09_2013-172_0141_20130621_123505_EX1303_MB.txt.mb163 1.32MB Generic YXZ sounding format
EX1303_EXApril09_2013-172_0142_20130621_132752_EX1303_MB.txt.mb163 4.57MB Generic YXZ sounding format
EX1303_EXApril09_2013-172_0143_20130621_152745_EX1303_MB.txt.mb163 3.75MB Generic YXZ sounding format
EX1303_EXApril09_2013-172_0144_20130621_172753_EX1303_MB.txt.mb163 0.60MB Generic YXZ sounding format
EX1303_EXApril09_2013-172_0145_20130621_175237_EX1303_MB.txt.mb163 25.1KB Generic YXZ sounding format
EX1303_EXApril09_2013-172_0146_20130621_175356_EX1303_MB.txt.mb163 0.66MB Generic YXZ sounding format
EX1303_EXApril09_2013-172_0147_20130621_182128_EX1303_MB.txt.mb163 2.91MB Generic YXZ sounding format
EX1303_EXApril09_2013-172_0148_20130621_202137_EX1303_MB.txt.mb163 5.00MB Generic YXZ sounding format
EX1303_EXApril09_2013-172_0149_20130621_222135_EX1303_MB.txt.mb163 2.10MB Generic YXZ sounding format
EX1303_EXApril09_2013-172_0150_20130621_234954_EX1303_MB.txt.mb163 245.4KB Generic YXZ sounding format
EX1303_EXApril09_2013-173_0151_20130622_000003_EX1303_MB.txt.mb163 353.2KB Generic YXZ sounding format
EX1303_EXApril09_2013-173_0152_20130622_001518_EX1303_MB.txt.mb163 2.91MB Generic YXZ sounding format
EX1303_EXApril09_2013-173_0153_20130622_021522_EX1303_MB.txt.mb163 4.33MB Generic YXZ sounding format
EX1303_EXApril09_2013-173_0154_20130622_041518_EX1303_MB.txt.mb163 1.85MB Generic YXZ sounding format
EX1303_EXApril09_2013-173_0155_20130622_053532_EX1303_MB.txt.mb163 0.66MB Generic YXZ sounding format
EX1303_EXApril09_2013-173_0156_20130622_060408_EX1303_MB.txt.mb163 2.86MB Generic YXZ sounding format
EX1303_EXApril09_2013-173_0157_20130622_080407_EX1303_MB.txt.mb163 3.40MB Generic YXZ sounding format
EX1303_EXApril09_2013-173_0158_20130622_100404_EX1303_MB.txt.mb163 2.76MB Generic YXZ sounding format
EX1303_EXApril09_2013-173_0159_20130622_120409_EX1303_MB.txt.mb163 2.24MB Generic YXZ sounding format
EX1303_EXApril09_2013-173_0160_20130622_134529_EX1303_MB.txt.mb163 331.4KB Generic YXZ sounding format
EX1303_EXApril09_2013-173_0161_20130622_140020_EX1303_MB.txt.mb163 433.2KB Generic YXZ sounding format
EX1303_EXApril09_2013-173_0162_20130622_141713_EX1303_MB.txt.mb163 2.92MB Generic YXZ sounding format
EX1303_EXApril09_2013-173_0163_20130622_161710_EX1303_MB.txt.mb163 2.86MB Generic YXZ sounding format
EX1303_EXApril09_2013-173_0164_20130622_181713_EX1303_MB.txt.mb163 4.22MB Generic YXZ sounding format
EX1303_EXApril09_2013-173_0165_20130622_201712_EX1303_MB.txt.mb163 1.60MB Generic YXZ sounding format
EX1303_EXApril09_2013-173_0166_20130622_212546_EX1303_MB.txt.mb163 0.56MB Generic YXZ sounding format
EX1303_EXApril09_2013-173_0167_20130622_214858_EX1303_MB.txt.mb163 2.80MB Generic YXZ sounding format
EX1303_EXApril09_2013-173_0168_20130622_234854_EX1303_MB.txt.mb163 305.1KB Generic YXZ sounding format
EX1303_EXApril09_2013-174_0169_20130623_000059_EX1303_MB.txt.mb163 3.83MB Generic YXZ sounding format
EX1303_EXApril09_2013-174_0170_20130623_020059_EX1303_MB.txt.mb163 2.92MB Generic YXZ sounding format
EX1303_EXApril09_2013-174_0171_20130623_040105_EX1303_MB.txt.mb163 2.76MB Generic YXZ sounding format
EX1303_EXApril09_2013-174_0172_20130623_060107_EX1303_MB.txt.mb163 0.83MB Generic YXZ sounding format
EX1303_EXApril09_2013-174_0173_20130623_063601_EX1303_MB.txt.mb163 349.6KB Generic YXZ sounding format
EX1303_EXApril09_2013-174_0174_20130623_065011_EX1303_MB.txt.mb163 2.87MB Generic YXZ sounding format
EX1303_EXApril09_2013-174_0175_20130623_085009_EX1303_MB.txt.mb163 1.97MB Generic YXZ sounding format
EX1303_EXApril09_2013-174_0176_20130623_100710_EX1303_MB.txt.mb163 2.83MB Generic YXZ sounding format
EX1303_EXApril09_2013-174_0177_20130623_120709_EX1303_MB.txt.mb163 3.11MB Generic YXZ sounding format
EX1303_EXApril09_2013-174_0178_20130623_140707_EX1303_MB.txt.mb163 1.39MB Generic YXZ sounding format
EX1303_EXApril09_2013-174_0179_20130623_150502_EX1303_MB.txt.mb163 295.1KB Generic YXZ sounding format
EX1303_EXApril09_2013-174_0180_20130623_151736_EX1303_MB.txt.mb163 1.13MB Generic YXZ sounding format
EX1303_EXApril09_2013-174_0181_20130623_160653_EX1303_MB.txt.mb163 2.80MB Generic YXZ sounding format
EX1303_EXApril09_2013-174_0182_20130623_180700_EX1303_MB.txt.mb163 2.82MB Generic YXZ sounding format
EX1303_EXApril09_2013-174_0183_20130623_200655_EX1303_MB.txt.mb163 3.73MB Generic YXZ sounding format
EX1303_EXApril09_2013-174_0184_20130623_220656_EX1303_MB.txt.mb163 2.70MB Generic YXZ sounding format
EX1303_EXApril09_2013-175_0185_20130624_000005_EX1303_MB.txt.mb163 1.28MB Generic YXZ sounding format
EX1303_EXApril09_2013-175_0186_20130624_005358_EX1303_MB.txt.mb163 0.66MB Generic YXZ sounding format
EX1303_EXApril09_2013-175_0187_20130624_012057_EX1303_MB.txt.mb163 2.94MB Generic YXZ sounding format
EX1303_EXApril09_2013-175_0188_20130624_032056_EX1303_MB.txt.mb163 5.92MB Generic YXZ sounding format
EX1303_EXApril09_2013-175_0189_20130624_052056_EX1303_MB.txt.mb163 4.34MB Generic YXZ sounding format
EX1303_EXApril09_2013-175_0190_20130624_065657_EX1303_MB.txt.mb163 1.58MB Generic YXZ sounding format
EX1303_EXApril09_2013-175_0191_20130624_080230_EX1303_MB.txt.mb163 6.02MB Generic YXZ sounding format
EX1303_EXApril09_2013-175_0192_20130624_100227_EX1303_MB.txt.mb163 3.96MB Generic YXZ sounding format
EX1303_EXApril09_2013-175_0193_20130624_120227_EX1303_MB.txt.mb163 1.47MB Generic YXZ sounding format
EX1303_EXApril09_2013-175_0194_20130624_130658_EX1303_MB.txt.mb163 0.54MB Generic YXZ sounding format
EX1303_EXApril09_2013-175_0195_20130624_132950_EX1303_MB.txt.mb163 3.83MB Generic YXZ sounding format
EX1303_EXApril09_2013-175_0196_20130624_152944_EX1303_MB.txt.mb163 6.23MB Generic YXZ sounding format
EX1303_EXApril09_2013-175_0197_20130624_172946_EX1303_MB.txt.mb163 1.92MB Generic YXZ sounding format
EX1303_EXApril09_2013-175_0198_20130624_184219_EX1303_MB.txt.mb163 504.2KB Generic YXZ sounding format
EX1303_EXApril09_2013-175_0199_20130624_190227_EX1303_MB.txt.mb163 3.51MB Generic YXZ sounding format
EX1303_EXApril09_2013-175_0200_20130624_210224_EX1303_MB.txt.mb163 3.87MB Generic YXZ sounding format
EX1303_EXApril09_2013-175_0201_20130624_230222_EX1303_MB.txt.mb163 1.27MB Generic YXZ sounding format
EX1303_EXApril09_2013-176_0202_20130625_000010_EX1303_MB.txt.mb163 0.58MB Generic YXZ sounding format
EX1303_EXApril09_2013-176_0203_20130625_002457_EX1303_MB.txt.mb163 2.92MB Generic YXZ sounding format
EX1303_EXApril09_2013-176_0204_20130625_022459_EX1303_MB.txt.mb163 3.31MB Generic YXZ sounding format
EX1303_EXApril09_2013-176_0205_20130625_042455_EX1303_MB.txt.mb163 2.82MB Generic YXZ sounding format
EX1303_EXApril09_2013-176_0206_20130625_061809_EX1303_MB.txt.mb163 0.54MB Generic YXZ sounding format
EX1303_EXApril09_2013-176_0207_20130625_064226_EX1303_MB.txt.mb163 2.76MB Generic YXZ sounding format
EX1303_EXApril09_2013-176_0208_20130625_084222_EX1303_MB.txt.mb163 3.33MB Generic YXZ sounding format
EX1303_EXApril09_2013-176_0209_20130625_104223_EX1303_MB.txt.mb163 150.5KB Generic YXZ sounding format
EX1303_EXApril09_2013-176_0210_20130625_105029_EX1303_MB.txt.mb163 466.1KB Generic YXZ sounding format
EX1303_EXApril09_2013-176_0211_20130625_111044_EX1303_MB.txt.mb163 2.96MB Generic YXZ sounding format
EX1303_EXApril09_2013-176_0212_20130625_131044_EX1303_MB.txt.mb163 0.98MB Generic YXZ sounding format
EX1303_EXApril09_2013-176_0213_20130625_134923_EX1303_MB.txt.mb163 280.7KB Generic YXZ sounding format
EX1303_EXApril09_2013-176_0214_20130625_140115_EX1303_MB.txt.mb163 3.85MB Generic YXZ sounding format
EX1303_EXApril09_2013-176_0215_20130625_160114_EX1303_MB.txt.mb163 4.07MB Generic YXZ sounding format
EX1303_EXApril09_2013-176_0216_20130625_180118_EX1303_MB.txt.mb163 2.92MB Generic YXZ sounding format
EX1303_EXApril09_2013-176_0217_20130625_200114_EX1303_MB.txt.mb163 2.89MB Generic YXZ sounding format
EX1303_EXApril09_2013-176_0218_20130625_220116_EX1303_MB.txt.mb163 2.71MB Generic YXZ sounding format
EX1303_EXApril09_2013-177_0219_20130626_000001_EX1303_MB.txt.mb163 2.73MB Generic YXZ sounding format
EX1303_EXApril09_2013-177_0220_20130626_020000_EX1303_MB.txt.mb163 2.78MB Generic YXZ sounding format
EX1303_EXApril09_2013-177_0221_20130626_040006_EX1303_MB.txt.mb163 2.78MB Generic YXZ sounding format
EX1303_EXApril09_2013-177_0222_20130626_060000_EX1303_MB.txt.mb163 2.83MB Generic YXZ sounding format
EX1303_EXApril09_2013-177_0223_20130626_080000_EX1303_MB.txt.mb163 2.80MB Generic YXZ sounding format
EX1303_EXApril09_2013-177_0224_20130626_100007_EX1303_MB.txt.mb163 2.81MB Generic YXZ sounding format
EX1303_EXApril09_2013-177_0225_20130626_120002_EX1303_MB.txt.mb163 2.88MB Generic YXZ sounding format
EX1303_EXApril09_2013-177_0226_20130626_140003_EX1303_MB.txt.mb163 3.00MB Generic YXZ sounding format
EX1303_EXApril09_2013-177_0227_20130626_160006_EX1303_MB.txt.mb163 3.04MB Generic YXZ sounding format
EX1303_EXApril09_2013-177_0228_20130626_180001_EX1303_MB.txt.mb163 3.17MB Generic YXZ sounding format
EX1303_EXApril09_2013-177_0229_20130626_200006_EX1303_MB.txt.mb163 3.40MB Generic YXZ sounding format
EX1303_EXApril09_2013-177_0230_20130626_220002_EX1303_MB.txt.mb163 3.46MB Generic YXZ sounding format
EX1303_EXApril09_2013-178_0231_20130627_000004_EX1303_MB.txt.mb163 3.63MB Generic YXZ sounding format
EX1303_EXApril09_2013-178_0232_20130627_020002_EX1303_MB.txt.mb163 4.71MB Generic YXZ sounding format
EX1303_EXApril09_2013-178_0233_20130627_040003_EX1303_MB.txt.mb163 7.18MB Generic YXZ sounding format
EX1303_EXApril09_2013-178_0234_20130627_060008_EX1303_MB.txt.mb163 7.08MB Generic YXZ sounding format
EX1303_EXApril09_2013-178_0235_20130627_080007_EX1303_MB.txt.mb163 7.03MB Generic YXZ sounding format
EX1303_EXApril09_2013-178_0236_20130627_100006_EX1303_MB.txt.mb163 5.85MB Generic YXZ sounding format
EX1303_EXApril09_2013-178_0237_20130627_113408_EX1303_MB.txt.mb163 8.47MB Generic YXZ sounding format
EX1303_EXApril09_2013-178_0238_20130627_133404_EX1303_MB.txt.mb163 12.72MB Generic YXZ sounding format
EX1303_EXApril09_2013-178_0239_20130627_153405_EX1303_MB.txt.mb163 10.52MB Generic YXZ sounding format
EX1303_EXApril09_2013-178_0240_20130627_162748_EX1303_MB.txt.mb163 28.96MB Generic YXZ sounding format
EX1303_EXApril09_2013-178_0241_20130627_174146_EX1303_MB.txt.mb163 5.35MB Generic YXZ sounding format
EX1303_EXApril09_2013-178_0242_20130627_174738_EX1303_MB.txt.mb163 18.93MB Generic YXZ sounding format
EX1303_EXApril09_2013-178_0243_20130627_182728_EX1303_MB.txt.mb163 1.75MB Generic YXZ sounding format
EX1303_EXApril09_2013-178_0244_20130627_183410_EX1303_MB.txt.mb163 5.92MB Generic YXZ sounding format
EX1303_EXApril09_2013-178_0245_20130627_184832_EX1303_MB.txt.mb163 4.74MB Generic YXZ sounding format
EX1303_EXApril09_2013-178_0246_20130627_185643_EX1303_MB.txt.mb163 7.83MB Generic YXZ sounding format
EX1303_EXApril09_2013-178_0247_20130627_191537_EX1303_MB.txt.mb163 7.66MB Generic YXZ sounding format
EX1303_EXApril09_2013-178_0248_20130627_195021_EX1303_MB.txt.mb163 1.64MB Generic YXZ sounding format
EX1303_EXApril09_2013-178_0249_20130627_195836_EX1303_MB.txt.mb163 32.85MB Generic YXZ sounding format
EX1303_EXApril09_2013-178_0250_20130627_211153_EX1303_MB.txt.mb163 35.66MB Generic YXZ sounding format
EX1303_EXApril09_2013-178_0251_20130627_215726_EX1303_MB.txt.mb163 3.15MB Generic YXZ sounding format
EX1303_EXApril09_2013-178_0252_20130627_220717_EX1303_MB.txt.mb163 4.42MB Generic YXZ sounding format
EX1303_EXApril09_2013-178_0253_20130627_221446_EX1303_MB.txt.mb163 5.22MB Generic YXZ sounding format
EX1303_EXApril09_2013-178_0254_20130627_222126_EX1303_MB.txt.mb163 39.74MB Generic YXZ sounding format
EX1303_EXApril09_2013-179_0255_20130628_000929_EX1303_MB.txt.mb163 14.84MB Generic YXZ sounding format
EX1303_EXApril09_2013-179_0256_20130628_020929_EX1303_MB.txt.mb163 8.38MB Generic YXZ sounding format
EX1303_EXApril09_2013-179_0257_20130628_040934_EX1303_MB.txt.mb163 8.27MB Generic YXZ sounding format
EX1303_EXApril09_2013-179_0258_20130628_060933_EX1303_MB.txt.mb163 12.98MB Generic YXZ sounding format
EX1303_EXApril09_2013-179_0259_20130628_080929_EX1303_MB.txt.mb163 28.24MB Generic YXZ sounding format
EX1303_EXApril09_2013-179_0260_20130628_100929_EX1303_MB.txt.mb163 26.87MB Generic YXZ sounding format
EX1303_EXApril09_2013-179_0261_20130628_111713_EX1303_MB.txt.mb163 6.71MB Generic YXZ sounding format
EX1303_EXApril09_2013-179_0262_20130628_113054_EX1303_MB.txt.mb163 30.64MB Generic YXZ sounding format
EX1303_EXApril09_2013-179_0263_20130628_125645_EX1303_MB.txt.mb163 3.21MB Generic YXZ sounding format
EX1303_EXApril09_2013-179_0264_20130628_130220_EX1303_MB.txt.mb163 27.39MB Generic YXZ sounding format
EX1303_EXApril09_2013-179_0265_20130628_135848_EX1303_MB.txt.mb163 5.86MB Generic YXZ sounding format
EX1303_EXApril09_2013-179_0266_20130628_141627_EX1303_MB.txt.mb163 27.68MB Generic YXZ sounding format
EX1303_EXApril09_2013-179_0267_20130628_151039_EX1303_MB.txt.mb163 4.10MB Generic YXZ sounding format
EX1303_EXApril09_2013-179_0268_20130628_152150_EX1303_MB.txt.mb163 13.73MB Generic YXZ sounding format
EX1303_EXApril09_2013-179_0269_20130628_160017_EX1303_MB.txt.mb163 14.76MB Generic YXZ sounding format
EX1303_EXApril09_2013-179_0270_20130628_164630_EX1303_MB.txt.mb163 4.67MB Generic YXZ sounding format
EX1303_EXApril09_2013-179_0271_20130628_171924_EX1303_MB.txt.mb163 27.21MB Generic YXZ sounding format
EX1303_EXApril09_2013-179_0272_20130628_185119_EX1303_MB.txt.mb163 34.99MB Generic YXZ sounding format
EX1303_EXApril09_2013-179_0273_20130628_200651_EX1303_MB.txt.mb163 19.75MB Generic YXZ sounding format
EX1303_EXApril09_2013-179_0274_20130628_205734_EX1303_MB.txt.mb163 26.97MB Generic YXZ sounding format
EX1303_EXApril09_2013-179_0275_20130628_213707_EX1303_MB.txt.mb163 9.13MB Generic YXZ sounding format
EX1303_EXApril09_2013-179_0276_20130628_215506_EX1303_MB.txt.mb163 44.81MB Generic YXZ sounding format

Products: 10

Files File Size Description
EX1303_MB_FNL_50m_WGS84.asc.gz 1.34MB ESRI Arc ASCII
EX1303_MB_FNL_50m_WGS84.kmz.gz 20.70MB Compressed Keyhole Markup Language file
EX1303_MB_FNL_50m_WGS84.sd.gz 39.44MB Fledermaus surface
EX1303_MB_FNL_50m_WGS84.tif.gz 20.68MB GeoTIFF survey image
EX1303_MB_FNL_50m_WGS84.txt.gz 122.03MB ASCII text product
EX1303_MB_FNL_Hudson_Canyon_30m_WGS84.asc.gz 4.90MB ESRI Arc ASCII
EX1303_MB_FNL_Hudson_Canyon_30m_WGS84.kmz.gz 32.35MB Compressed Keyhole Markup Language file
EX1303_MB_FNL_Hudson_Canyon_30m_WGS84.sd.gz 6.40MB Fledermaus surface
EX1303_MB_FNL_Hudson_Canyon_30m_WGS84.tif.gz 32.32MB GeoTIFF survey image
EX1303_MB_FNL_Hudson_Canyon_30m_WGS84.txt.gz 17.58MB ASCII text product

Metadata Files: 6

Files File Size Description
EX1303_Multibeam.xml NCEI created ISO metadata
EX1303_COLLECTION_UNRESOLVED.xml 19.4KB XML metadata file
EX1303_Multibeam_COLLECTION_UNRESOLVED.xml 21.4KB XML metadata file
EX1303_Profile_COLLECTION_UNRESOLVED.xml 15.6KB XML metadata file
v1_file_metadata.tar.gz 81.0KB File level metadata
v2_file_metadata.tar.gz 92.6KB File level metadata

Ancillary Files: 3

Files File Size Description
asvp.tar.gz 0.56MB Sound Speed Profiles (SSP or SVP)
support.tar.gz 65.0KB Supporting data
xbt.tar.gz 2.59MB Expendable Bathythermograph (XBT) data

Water Column Sonar Data

Water Column Sonar Data Available: WCSD Map Viewer